Temperature
22 22 21 21 22 22 23 24 24 24 25 24 24 24 23 22 21 19 18 18 18 18 18 18 18 18 18 18 17 18 18 17 17 17 17 17 17 17 17 17 17 17 17 17 18 18 18 18 18
22 21 22 22 22 23 23 24 24 24 24 24 24 24 23 22 20 19 18 18 18 18 17 18 18 18 18 17 17 17 17 17 17 17 17 17 17 17 17 17 17 17 17 17 17 17 17 17 17
22 22 22 23 23 23 23 24 24 25 24 25 24 23 22 21 20 19 19 19 18 18 18 18 18 18 17 17 17 17 17 17 17 17 17 17 17 17 17 17 17 17 17 17 17 17 17 17 17
22 23 24 23 24 24 25 25 25 25 25 25 24 23 21 21 20 19 19 19 18 18 18 18 18 18 17 17 17 17 17 17 17 17 17 17 17 17 17 17 17 17 17 17 17 17 17 17 17
23 23 23 23 24 25 25 26 26 25 25 24 24 22 21 20 19 19 19 19 18 18 18 18 18 18 18 17 17 17 17 17 17 17 17 17 17 17 17 17 17 17 17 17 17 17 17 17 17
23 24 23 23 24 25 26 26 26 25 25 24 23 22 20 20 19 19 19 19 19 18 18 18 18 18 18 17 17 17 17 17 17 17 17 17 17 17 17 17 17 17 17 17 17 17 17 17 17
24 23 23 24 24 25 26 26 26 25 25 24 24 22 20 20 19 19 19 19 19 18 18 18 18 18 18 17 17 17 17 17 17 17 17 17 17 17 17 17 17 17 17 17 17 17 17 17 17
24 24 24 24 24 24 26 26 25 25 24 24 24 23 21 20 20 19 19 19 19 19 18 18 18 18 18 17 17 17 17 17 17 17 17 17 17 17 16 17 17 17 17 17 16 16 16 16 16
24 24 23 24 24 25 26 25 25 25 24 24 23 22 21 20 20 20 19 19 19 19 19 18 18 18 18 17 17 17 17 17 17 17 17 17 16 16 16 16 16 16 16 16 16 16 16 16 16
25 23 24 25 26 25 26 25 25 25 24 23 22 22 21 20 20 20 20 19 19 19 19 19 18 18 18 18 17 17 17 17 17 17 17 16 16 16 16 16 16 16 16 16 16 16 16 16 16
26 24 25 26 26 26 25 25 25 25 24 24 22 22 21 20 20 20 20 20 19 19 19 19 19 18 18 18 17 17 17 17 17 17 16 16 16 16 16 16 16 16 16 16 16 16 16 16 16
26 25 26 26 25 25 25 25 25 25 24 24 23 22 21 21 21 20 20 20 20 19 19 19 19 19 18 18 17 17 17 17 17 17 16 16 16 16 16 16 16 16 16 16 16 16 16 16 16
26 25 25 25 25 25 25 25 25 24 24 24 23 22 22 21 21 21 20 20 20 19 19 19 19 19 18 18 18 17 17 17 17 17 16 16 16 16 16 16 16 16 16 16 16 16 16 16 16
26 25 25 25 25 25 25 25 25 24 24 23 23 22 22 22 21 21 21 20 20 19 19 19 19 19 18 18 18 17 17 17 16 16 16 16 16 16 16 16 16 16 15 16 15 15 15 15 15
25 25 25 25 25 25 25 24 25 24 24 23 23 22 22 22 21 21 21 20 20 20 19 19 18 18 18 18 17 17 17 16 16 16 16 16 16 16 16 16 16 15 15 15 15 15 15 15 15
26 25 24 25 25 25 24 23 25 24 24 24 23 23 22 22 21 21 21 20 20 20 19 19 18 18 18 18 17 17 17 16 16 16 16 16 16 16 16 16 15 15 15 15 15 15 15 15 15
25 24 24 25 26 26 25 24 25 24 24 24 23 23 22 22 21 21 21 20 20 20 19 19 18 18 18 17 17 17 16 16 16 16 16 16 16 16 16 15 15 15 15 15 15 15 15 15 15
24 25 25 25 26 26 25 24 25 24 24 24 24 23 23 22 21 21 20 20 20 19 19 19 18 18 17 17 17 16 16 16 16 16 16 16 16 15 15 15 15 15 15 15 15 14 14 14 14
26 25 25 26 26 25 25 25 25 25 24 24 24 24 23 22 22 21 20 20 19 19 19 19 18 18 17 17 17 16 16 16 16 15 15 15 15 15 15 15 15 15 14 14 14 14 14 14 14
26 25 25 26 26 26 25 25 25 25 25 24 24 24 23 23 22 21 20 20 19 19 19 19 18 18 17 17 17 16 16 16 16 15 15 15 15 15 15 15 14 14 14 14 14 14 14 14 14
25 25 25 25 26 26 25 24 25 25 25 25 24 24 24 23 22 21 20 20 19 19 19 18 18 18 17 17 17 16 16 16 15 15 15 15 15 15 14 14 14 14 14 14 14 13 13 13 13
24 26 26 25 25 24 25 23 25 25 25 25 24 24 23 23 22 21 20 20 19 19 19 18 18 18 17 17 17 16 16 16 15 15 15 15 14 14 14 14 14 14 14 13 13 13 13 13 13
25 26 25 25 24 24 25 24 25 25 24 24 24 24 23 23 22 21 20 20 19 19 19 18 18 18 17 17 17 16 16 15 15 15 15 15 14 14 14 14 14 13 13 13 13 13 13 13 13
26 25 25 25 24 23 24 24 24 25 25 24 24 24 23 23 22 21 21 20 19 19 19 18 18 18 17 17 17 16 16 15 15 15 15 15 14 14 14 14 13 13 13 13 13 13 13 12 12
25 24 23 23 22 23 25 25 24 25 25 25 24 23 23 22 22 21 20 20 19 19 18 18 18 17 17 17 16 16 16 15 15 15 15 15 14 14 14 14 13 13 13 13 13 12 12 12 12
25 24 22 22 22 24 25 25 24 25 25 25 24 23 23 22 21 21 20 19 19 18 18 18 17 17 17 17 16 16 16 15 15 15 15 14 14 14 14 14 13 13 13 13 13 12 12 12 12
24 24 25 24 23 23 24 24 24 25 24 24 24 23 22 22 21 21 20 19 19 18 18 18 17 17 17 16 16 16 16 15 15 15 14 14 14 14 14 13 13 13 13 12 12 12 12 12 12
25 25 24 23 22 22 23 24 23 23 23 23 23 23 22 22 21 20 20 19 18 18 18 17 17 17 17 16 16 16 15 15 15 14 14 14 14 13 13 13 13 13 12 12 12 12 12 12 12
24 24 24 23 23 22 22 23 25 24 24 23 23 23 22 22 21 20 20 19 18 18 17 17 17 17 16 16 16 15 15 15 15 14 14 14 14 13 13 13 13 12 12 12 12 12 12 11 11
25 24 24 22 22 23 22 22 25 24 24 24 23 23 22 21 21 20 19 19 18 17 17 17 17 16 16 16 16 15 15 15 15 14 14 14 13 13 13 13 12 12 12 12 11 11 11 11 11
Wind_Speed
9 11 7 2 2 0 6 6 7 6 6 8 8 8 12 12 8 8 3 6 9 10 11 11 12 12 13 13 13 13 13 13 13 13 13 13 13 13 13 13 13 14 14 14 14 13 13 13 12
9 6 4 3 2 3 6 7 9 9 7 5 7 11 13 11 11 8 4 5 8 10 12 11 12 13 13 13 13 13 13 13 13 13 13 13 13 13 13 13 13 14 14 14 14 14 13 13 13
10 6 3 2 2 5 6 8 8 9 7 6 8 10 8 7 9 6 5 7 9 11 13 12 12 12 12 13 13 13 12 12 13 13 13 13 13 13 14 13 13 13 14 13 13 13 13 13 13
5 3 2 1 6 8 8 8 7 8 6 6 8 9 8 8 6 7 7 8 10 11 13 12 12 12 12 12 12 12 13 12 13 13 13 13 13 13 13 13 13 13 13 13 13 13 13 13 12
3 3 1 3 6 7 7 7 6 7 6 7 10 10 9 10 11 9 6 8 10 9 12 12 11 11 11 11 12 12 12 12 12 13 13 13 13 13 13 13 13 13 12 12 12 12 13 12 12
3 2 0 3 6 6 6 5 6 9 8 7 9 10 7 8 8 7 7 7 9 9 10 12 11 11 10 10 11 11 12 12 12 11 11 12 12 13 13 13 13 12 12 11 11 12 12 12 11
2 2 1 4 6 5 5 4 6 7 7 6 6 8 8 8 7 6 6 7 7 8 8 9 11 10 10 10 10 10 10 10 10 9 9 10 11 11 12 12 13 12 11 11 11 11 10 10 10
3 1 1 3 4 5 5 5 5 7 6 5 4 6 8 9 7 6 6 7 6 6 6 6 8 10 10 10 9 9 8 8 8 7 7 8 9 9 11 11 11 11 10 10 9 9 8 8 7
2 1 1 2 3 5 6 6 4 5 6 6 7 10 11 11 9 7 6 6 6 5 4 5 5 6 8 9 9 8 8 6 6 5 5 5 5 7 9 10 9 9 8 8 7 6 5 4 4
2 0 1 3 3 4 5 5 4 4 6 6 9 11 11 9 8 6 6 6 6 5 4 4 4 5 6 7 8 6 6 5 4 4 5 4 6 7 8 8 7 7 6 5 3 3 2 1 2
2 2 1 3 4 4 4 4 2 2 3 6 10 11 10 9 7 5 6 6 6 5 4 4 4 5 5 4 5 3 4 3 3 5 6 5 6 5 6 4 4 4 3 2 2 1 1 2 4
2 2 1 3 3 3 3 2 2 2 3 6 10 11 10 9 8 6 5 6 6 6 4 4 3 4 5 5 3 3 2 3 3 4 6 5 2 2 3 3 3 3 3 3 3 2 4 5 6
3 2 3 3 2 2 2 2 2 3 5 7 10 10 9 7 7 6 6 6 7 8 6 4 3 3 4 4 2 4 3 3 4 4 5 5 2 2 2 3 3 3 3 3 3 4 4 5 5
3 3 2 3 3 3 3 3 3 4 5 7 8 9 8 7 6 6 6 5 6 7 7 5 3 3 4 4 3 3 3 4 5 4 3 5 3 3 2 3 2 2 3 3 4 4 4 4 4
4 4 4 5 5 4 4 4 5 6 7 8 9 9 8 7 7 6 6 6 6 7 7 6 4 3 4 4 4 4 4 4 4 3 4 5 5 4 3 2 2 3 5 5 5 5 4 3 4
7 7 6 6 7 6 6 4 4 7 8 8 8 8 8 7 7 6 6 6 6 6 7 7 4 4 4 4 4 3 4 4 3 4 4 4 5 6 4 2 2 4 5 4 2 3 3 3 3
8 8 7 7 8 7 7 4 5 7 8 8 8 9 9 8 7 7 6 6 6 6 7 8 5 5 5 4 4 3 4 3 4 4 3 4 5 7 5 3 2 5 3 2 3 3 3 3 2
6 6 6 6 7 7 7 6 6 9 8 8 9 9 10 10 9 8 7 6 5 5 5 7 6 6 5 4 4 3 3 2 3 3 3 5 5 6 5 2 3 4 3 3 3 3 3 2 2
7 6 6 3 5 7 8 7 7 8 9 9 9 8 8 9 9 9 8 6 6 6 5 6 7 6 4 3 3 2 2 1 2 2 3 5 5 5 4 3 4 3 3 2 3 3 3 2 2
8 8 7 5 5 6 6 8 7 8 10 8 8 7 8 8 10 9 9 7 6 6 5 5 6 7 6 4 3 3 2 2 2 2 3 4 4 5 4 3 3 3 2 2 3 2 2 2 2
9 8 7 6 4 7 7 9 9 9 10 9 8 6 6 7 9 11 10 9 7 6 7 6 6 7 6 5 4 3 2 1 2 2 1 1 3 3 3 2 2 2 2 2 1 1 2 1 2
8 6 7 7 7 6 7 6 6 7 8 8 7 6 6 6 6 9 10 10 9 7 7 7 7 7 6 6 5 4 3 2 2 2 2 1 2 3 2 2 1 1 1 1 0 1 1 1 1
6 5 7 9 9 10 9 8 5 7 8 8 8 7 7 7 7 8 9 8 9 8 7 7 6 7 7 6 5 4 3 3 2 3 3 2 1 2 2 1 1 1 1 1 1 1 1 1 1
6 7 10 10 8 9 11 8 3 4 7 7 7 7 7 7 7 7 8 8 7 7 6 7 6 6 6 6 6 6 5 4 4 3 3 2 1 1 1 2 1 1 1 1 1 1 1 1 1
8 7 4 5 6 7 7 6 2 4 6 6 7 5 5 6 6 6 8 8 7 7 7 6 7 6 6 7 6 6 6 5 5 4 3 3 2 1 1 1 1 1 1 1 1 1 1 1 1
8 9 6 4 5 4 3 3 3 8 8 6 5 5 5 5 6 7 7 7 7 7 6 6 7 6 6 6 6 6 6 4 3 4 3 3 2 2 2 1 2 1 2 2 2 1 1 1 1
8 9 9 9 10 8 4 3 5 8 7 6 5 5 4 5 6 7 8 8 7 7 6 6 7 7 6 6 5 5 5 5 4 3 3 3 2 2 2 2 2 2 2 2 1 1 1 1 1
10 8 6 6 6 7 6 5 4 8 7 6 5 5 4 5 5 6 7 7 7 7 6 6 6 7 6 6 5 4 4 5 4 4 4 3 3 3 3 2 2 2 2 1 1 1 1 1 1
9 10 8 6 6 5 5 2 3 6 6 5 5 5 4 4 5 5 6 6 6 6 6 6 5 6 6 6 6 6 5 4 5 4 4 3 3 3 3 2 2 2 1 1 1 0 1 1 1
8 10 9 7 7 6 6 1 3 4 5 4 4 5 4 3 3 4 6 6 6 5 6 6 5 4 5 5 5 5 5 4 4 4 4 4 4 3 3 3 2 2 2 1 1 1 2 2 2
Wind_Direction
255 241 241 258 259 154 71 69 72 68 64 57 48 62 68 54 57 92 117 83 93 94 89 73 63 61 63 65 65 65 65 67 70 71 72 71 67 65 63 63 61 62 61 61 63 65 65 62 60
268 259 264 244 260 96 80 79 74 73 80 86 67 67 73 68 77 96 101 89 96 94 89 78 70 67 66 66 67 68 66 69 72 72 71 69 66 66 65 65 64 63 62 62 64 64 64 62 59
262 262 268 266 27 73 89 89 92 89 77 71 77 63 61 72 81 99 114 112 97 93 92 84 77 73 69 68 68 68 70 71 73 73 72 70 69 69 68 67 66 64 63 63 63 64 63 61 58
260 256 244 31 69 69 92 102 104 101 85 69 83 80 74 66 85 107 123 112 102 99 100 96 87 81 76 72 72 72 72 73 73 74 74 73 72 70 70 68 66 65 65 64 65 66 64 60 56
245 264 229 91 81 83 88 98 104 94 86 77 80 89 86 83 97 108 110 103 102 103 109 108 99 92 85 80 77 77 76 76 76 76 76 75 73 71 70 67 66 66 66 66 66 67 65 61 56
261 247 176 112 102 97 93 99 98 95 97 96 102 103 99 109 109 111 108 104 108 112 113 119 115 106 97 89 86 83 80 78 78 78 78 78 76 74 71 69 68 68 68 68 68 69 66 61 56
272 287 175 121 109 104 97 88 84 90 89 84 97 106 118 121 117 119 116 106 105 111 120 131 135 126 113 102 97 94 91 88 84 83 85 88 86 82 77 72 69 68 67 69 71 72 70 64 57
284 300 116 107 114 102 98 91 77 87 86 78 73 104 126 135 138 127 119 110 108 110 114 126 129 136 132 120 110 109 106 103 98 96 96 98 96 92 87 80 76 73 73 73 73 73 72 71 58
266 281 60 97 108 111 114 109 99 99 99 89 70 87 122 138 141 137 133 123 112 110 115 114 119 123 125 125 126 130 130 127 122 117 119 112 103 98 89 86 89 85 83 80 78 80 77 78 66
198 62 42 74 97 113 117 113 123 129 121 112 105 108 122 136 144 148 146 132 126 125 120 110 107 111 108 104 124 138 127 134 139 115 111 103 86 87 92 96 99 102 99 91 84 85 72 50 74
158 127 79 80 88 106 111 113 130 127 123 136 134 133 138 146 151 157 145 129 127 117 105 107 115 106 102 104 110 103 106 114 85 80 86 85 90 101 108 118 125 125 116 79 72 85 50 60 65
170 137 135 108 98 117 128 132 122 101 85 112 129 140 149 157 159 159 141 135 127 111 102 99 90 109 112 109 107 106 96 90 74 68 85 82 73 75 77 83 72 70 65 53 42 35 45 46 61
173 165 139 129 146 158 160 157 121 113 104 118 133 145 153 161 160 155 148 143 132 125 121 109 95 94 105 100 97 100 76 72 77 55 74 82 77 72 65 75 59 47 47 48 31 47 45 44 42
156 166 165 175 188 197 185 185 179 156 148 144 148 154 161 164 164 157 151 144 135 130 130 122 114 101 98 104 104 98 94 77 72 57 61 85 78 81 74 76 72 51 38 42 44 57 48 46 44
185 187 198 207 207 204 208 213 200 174 173 169 168 162 165 167 164 161 154 146 137 130 128 119 116 99 91 91 86 87 85 81 69 48 33 63 73 73 72 70 70 56 44 41 46 52 56 58 47
214 216 212 206 205 200 218 229 195 176 177 178 177 165 167 169 166 162 155 145 138 136 132 128 126 112 95 89 90 87 84 78 73 57 35 50 63 74 72 62 61 67 60 52 44 53 46 47 45
222 221 215 199 201 200 211 221 176 176 184 183 185 173 173 170 173 165 156 144 139 138 136 134 129 114 105 97 94 80 82 76 70 58 39 49 57 70 70 62 58 68 64 47 39 51 52 46 44
227 225 227 206 189 206 219 219 188 186 194 198 193 186 179 176 175 162 155 146 141 136 139 136 132 123 116 106 96 79 75 71 73 67 44 49 55 69 71 63 65 67 58 42 39 50 45 36 26
265 267 263 234 188 216 235 231 212 194 200 210 204 196 183 176 167 158 154 154 153 153 149 137 134 127 119 108 106 107 100 87 66 67 53 53 49 59 61 49 60 58 56 44 45 53 43 28 28
256 257 259 243 198 226 245 250 227 217 206 209 206 196 185 175 165 160 159 161 165 156 158 147 135 133 128 129 132 134 126 121 106 68 57 58 56 59 53 60 69 64 60 43 47 56 40 4 9
254 261 264 270 240 242 252 250 229 214 210 200 205 195 187 182 174 164 163 164 163 163 162 157 146 139 135 134 127 128 112 105 105 107 89 58 65 60 55 49 71 78 77 76 41 52 69 9 343
254 269 278 274 269 257 238 265 232 202 197 188 185 183 185 183 176 161 164 165 164 170 161 158 155 145 146 145 146 148 141 143 147 143 145 145 102 85 67 57 79 111 91 86 36 70 48 42 340
262 273 273 270 269 271 257 259 234 188 186 180 181 185 182 178 177 165 164 166 165 168 162 159 156 150 152 148 149 156 150 159 147 139 140 149 123 108 98 71 49 67 80 87 50 40 46 50 12
258 260 255 250 257 257 251 247 245 192 174 167 168 174 179 176 174 168 160 155 157 154 155 152 158 157 155 156 162 162 161 166 154 151 151 152 143 153 142 107 85 72 80 78 65 40 47 31 5
234 247 252 232 224 241 230 231 216 112 115 128 142 154 162 160 159 158 155 152 152 152 156 160 163 167 167 170 174 168 169 175 168 166 167 162 157 150 181 154 145 108 92 75 63 46 43 21 6
229 235 245 265 266 284 257 233 129 111 105 105 123 134 136 151 154 151 151 149 155 159 163 173 173 175 173 178 177 166 166 163 162 164 156 154 152 153 164 140 120 85 65 63 68 48 21 13 23
240 237 253 274 285 283 246 191 140 128 131 136 131 132 145 157 156 157 153 152 157 162 172 182 177 175 173 176 173 167 167 156 161 166 151 148 153 154 140 142 127 100 75 67 77 62 35 18 28
241 262 264 258 270 271 265 241 178 157 154 149 145 148 149 148 153 156 156 159 163 166 173 179 173 171 172 174 172 168 161 156 160 160 159 157 154 147 147 153 149 142 137 139 98 63 31 9 1
227 235 246 254 259 272 282 315 91 132 141 148 150 139 135 142 149 153 151 159 160 163 166 175 179 169 168 171 170 169 171 167 166 164 166 160 155 160 159 161 156 149 149 143 133 194 246 257 269
250 244 245 250 261 264 274 281 70 97 121 132 133 128 129 129 132 144 147 147 154 164 170 171 174 173 169 168 164 168 170 169 169 171 172 170 169 167 161 155 157 168 167 174 190 236 255 246 243
Height
1490 1490 1491 1493 1493 1496 1497 1495 1492 1493 1494 1497 1496 1496 1500 1504 1509 1520 1520 1518 1518 1517 1515 1515 1514 1513 1512 1512 1511 1511 1511 1511 1511 1511 1511 1511 1511 1511 1511 1511 1510 1510 1510 1509 1510 1510 1510 1511 1511
1490 1492 1493 1493 1495 1503 1503 1495 1496 1496 1497 1498 1498 1499 1502 1508 1512 1517 1518 1519 1519 1518 1516 1516 1515 1515 1514 1514 1514 1513 1513 1513 1513 1513 1513 1513 1513 1513 1513 1513 1512 1512 1512 1512 1512 1512 1512 1512 1513
1491 1492 1494 1491 1494 1500 1502 1496 1496 1497 1498 1498 1500 1503 1507 1512 1515 1517 1519 1520 1520 1519 1518 1517 1517 1517 1516 1516 1516 1515 1515 1515 1515 1515 1515 1515 1515 1515 1515 1514 1514 1514 1514 1514 1514 1514 1514 1514 1514
1493 1494 1493 1494 1498 1494 1494 1495 1495 1498 1499 1500 1501 1506 1512 1515 1517 1518 1520 1521 1520 1520 1519 1519 1518 1518 1518 1518 1518 1517 1517 1517 1517 1517 1517 1517 1517 1517 1517 1516 1516 1516 1516 1516 1516 1516 1516 1516 1516
1494 1494 1494 1499 1497 1494 1493 1494 1496 1498 1500 1502 1504 1510 1515 1517 1518 1519 1521 1521 1521 1521 1520 1520 1520 1520 1520 1519 1519 1519 1519 1519 1519 1519 1519 1519 1519 1519 1518 1518 1518 1518 1518 1518 1518 1518 1518 1518 1518
1495 1492 1500 1504 1499 1495 1494 1496 1496 1499 1502 1504 1506 1510 1517 1519 1519 1521 1522 1522 1522 1522 1522 1522 1522 1522 1521 1521 1521 1521 1521 1521 1521 1521 1521 1521 1521 1521 1520 1520 1520 1520 1519 1520 1520 1520 1519 1519 1520
1496 1495 1499 1498 1499 1498 1496 1497 1498 1500 1503 1505 1506 1511 1516 1519 1520 1521 1523 1523 1523 1524 1523 1523 1523 1523 1523 1523 1523 1523 1523 1523 1523 1523 1523 1522 1522 1522 1522 1522 1522 1521 1521 1521 1521 1521 1521 1521 1522
1494 1495 1496 1497 1500 1500 1497 1499 1501 1502 1505 1507 1508 1511 1516 1519 1520 1522 1523 1524 1524 1525 1525 1525 1525 1524 1524 1524 1524 1524 1524 1524 1524 1524 1524 1524 1524 1524 1524 1524 1524 1523 1523 1523 1523 1523 1523 1524 1524
1495 1498 1501 1498 1499 1499 1498 1500 1503 1504 1506 1508 1510 1512 1515 1518 1520 1522 1523 1524 1525 1526 1526 1527 1527 1527 1526 1526 1526 1526 1526 1526 1526 1526 1526 1526 1526 1526 1526 1526 1526 1525 1525 1525 1525 1525 1525 1526 1526
1495 1500 1499 1494 1494 1497 1499 1501 1503 1504 1506 1509 1511 1514 1516 1518 1520 1522 1523 1524 1525 1526 1527 1528 1528 1528 1528 1528 1528 1528 1528 1528 1528 1528 1528 1528 1528 1528 1528 1528 1527 1527 1527 1527 1527 1527 1527 1527 1528
1494 1497 1496 1495 1496 1498 1500 1502 1503 1504 1506 1508 1511 1514 1517 1519 1521 1522 1523 1525 1526 1527 1528 1528 1529 1529 1529 1529 1529 1530 1530 1529 1530 1530 1530 1530 1530 1529 1529 1529 1529 1529 1529 1529 1529 1529 1529 1529 1529
1494 1495 1496 1497 1498 1499 1501 1502 1503 1505 1507 1508 1511 1513 1516 1518 1520 1522 1523 1525 1526 1527 1528 1529 1529 1530 1530 1530 1530 1530 1531 1531 1531 1531 1531 1531 1531 1531 1531 1531 1531 1531 1531 1531 1531 1531 1531 1531 1531
1494 1496 1497 1498 1500 1501 1502 1503 1504 1506 1507 1509 1511 1514 1516 1518 1520 1521 1523 1524 1525 1527 1528 1529 1529 1530 1530 1530 1531 1531 1531 1532 1532 1532 1532 1532 1532 1532 1532 1532 1532 1532 1532 1532 1532 1531 1531 1531 1531
1495 1496 1498 1499 1500 1500 1502 1503 1504 1506 1508 1509 1511 1513 1515 1517 1519 1520 1522 1524 1525 1526 1527 1529 1529 1530 1531 1531 1531 1532 1532 1532 1532 1532 1532 1533 1533 1533 1533 1532 1532 1533 1532 1533 1533 1532 1532 1532 1532
1495 1497 1498 1498 1499 1500 1501 1503 1502 1504 1506 1508 1510 1512 1514 1516 1518 1520 1521 1523 1524 1525 1527 1528 1529 1530 1530 1531 1532 1532 1532 1533 1533 1533 1533 1533 1533 1533 1533 1533 1533 1533 1533 1533 1533 1533 1533 1533 1533
1494 1497 1502 1497 1496 1497 1503 1507 1500 1502 1504 1506 1508 1510 1513 1515 1517 1519 1520 1522 1523 1525 1526 1527 1529 1530 1530 1531 1531 1532 1533 1533 1533 1533 1533 1534 1534 1534 1533 1533 1533 1534 1533 1533 1533 1533 1533 1533 1533
1495 1500 1499 1496 1493 1494 1498 1502 1498 1500 1502 1504 1506 1508 1511 1513 1515 1517 1519 1521 1523 1524 1525 1527 1528 1529 1530 1531 1531 1532 1533 1533 1533 1533 1533 1534 1534 1534 1534 1534 1534 1534 1534 1534 1534 1534 1534 1534 1534
1497 1495 1494 1494 1490 1492 1496 1497 1496 1497 1499 1501 1503 1505 1507 1510 1513 1515 1517 1519 1521 1523 1525 1525 1527 1528 1529 1530 1531 1531 1532 1533 1533 1533 1533 1534 1534 1533 1534 1534 1534 1534 1534 1534 1534 1534 1534 1534 1534
1488 1491 1492 1489 1487 1491 1494 1493 1493 1494 1496 1498 1499 1501 1504 1507 1510 1513 1515 1518 1520 1522 1523 1524 1526 1527 1528 1529 1530 1530 1531 1532 1532 1533 1533 1533 1533 1533 1533 1534 1534 1534 1534 1534 1534 1534 1534 1534 1534
1487 1492 1492 1487 1485 1488 1492 1491 1489 1490 1491 1494 1495 1498 1501 1504 1507 1510 1513 1515 1518 1520 1521 1523 1524 1525 1527 1528 1528 1529 1530 1531 1531 1532 1532 1533 1533 1533 1533 1533 1533 1533 1534 1534 1534 1533 1533 1534 1534
1488 1490 1490 1490 1486 1486 1490 1493 1487 1485 1487 1490 1492 1495 1498 1501 1504 1507 1510 1513 1515 1517 1519 1521 1523 1524 1525 1526 1527 1528 1529 1530 1530 1531 1531 1532 1532 1532 1533 1533 1533 1533 1533 1533 1533 1533 1533 1533 1533
1491 1484 1485 1487 1492 1494 1491 1502 1487 1482 1483 1486 1489 1493 1496 1498 1501 1504 1507 1510 1513 1515 1517 1519 1521 1522 1523 1525 1526 1527 1527 1528 1529 1530 1530 1531 1531 1532 1532 1532 1532 1532 1532 1532 1532 1532 1532 1533 1533
1485 1483 1485 1487 1490 1493 1488 1495 1487 1478 1483 1484 1486 1490 1493 1496 1499 1501 1504 1507 1510 1512 1514 1517 1519 1520 1521 1523 1524 1525 1526 1527 1528 1528 1529 1530 1530 1531 1531 1531 1531 1531 1531 1531 1531 1531 1531 1532 1532
1482 1484 1485 1485 1491 1503 1489 1492 1490 1479 1478 1481 1484 1487 1490 1493 1496 1499 1502 1505 1507 1510 1512 1514 1516 1518 1519 1521 1522 1523 1524 1525 1526 1527 1528 1528 1529 1530 1530 1530 1530 1531 1530 1530 1530 1530 1531 1530 1531
1483 1492 1502 1504 1505 1499 1478 1484 1486 1474 1473 1477 1482 1486 1488 1491 1494 1497 1499 1502 1505 1507 1509 1511 1514 1516 1517 1519 1520 1521 1523 1524 1525 1525 1526 1527 1528 1528 1529 1529 1529 1529 1529 1530 1529 1529 1529 1529 1530
1482 1488 1503 1511 1505 1492 1480 1484 1479 1472 1474 1478 1481 1484 1487 1490 1492 1495 1497 1500 1502 1505 1507 1509 1511 1513 1515 1517 1518 1519 1521 1522 1523 1524 1525 1525 1526 1527 1527 1528 1528 1528 1528 1528 1528 1528 1528 1528 1528
1482 1483 1480 1490 1491 1496 1485 1478 1476 1472 1476 1479 1481 1484 1487 1489 1491 1494 1496 1498 1500 1503 1505 1507 1509 1511 1513 1514 1516 1517 1519 1520 1521 1522 1523 1524 1525 1525 1526 1526 1527 1527 1527 1527 1527 1527 1527 1527 1527
1476 1478 1484 1492 1502 1504 1490 1482 1482 1478 1477 1478 1481 1483 1486 1488 1490 1493 1495 1496 1498 1500 1502 1505 1506 1508 1510 1512 1513 1515 1516 1517 1518 1519 1520 1521 1523 1523 1524 1524 1525 1525 1525 1525 1525 1525 1525 1525 1525
1477 1480 1481 1485 1487 1499 1501 1492 1469 1472 1474 1477 1479 1482 1485 1487 1489 1491 1493 1495 1497 1499 1500 1502 1504 1506 1507 1509 1510 1512 1513 1515 1516 1517 1518 1519 1520 1521 1522 1522 1523 1523 1523 1523 1523 1523 1524 1524 1524
1471 1474 1478 1490 1490 1485 1493 1492 1468 1470 1472 1475 1478 1481 1484 1486 1488 1490 1491 1493 1495 1496 1498 1499 1501 1503 1504 1505 1507 1509 1510 1512 1513 1514 1515 1516 1517 1518 1519 1520 1520 1521 1521 1521 1521 1522 1522 1522 1522